Regional Weather Roundup
Issued by NWS

Home | Current Version | Previous Version | Text Only | Print | Product List | Glossary Off
Versions: 1 2 3 4 5 6 7 8 9 10 11 12 13 14 15 16 17 18 19 20 21 22 23 24 25 26 27 28 29 30 31 32 33 34 35 36 37 38 39 40 41 42 43 44 45 46 47 48 49 50

000
ASUS43 KFSD 270910
RWRSD

WEATHER ROUNDUP FOR SOUTH DAKOTA
NATIONAL WEATHER SERVICE SIOUX FALLS SD
400 AM CDT SAT AUG 27 2016

NOTE: "FAIR" INDICATES FEW OR NO CLOUDS BELOW 12,000 FEET WITH NO
SIGNIFICANT WEATHER AND/OR OBSTRUCTIONS TO VISIBILITY.


SDZ001>005-009-010-012>017-271000-
NORTHWEST AND NORTH CENTRAL SOUTH DAKOTA

CITY           SKY/WX    TMP DP  RH WIND       PRES   REMARKS
BUFFALO          N/A     53  49  86 NE3       29.92S
FAITH            N/A     53  53 100 NE6       29.96S
MOBRIDGE       CLOUDY    60  55  83 S8        29.95S
$$

SDZ012>016-024>037-041>051-057-063-072>074-271000-
SOUTHWEST AND SOUTH CENTRAL SOUTH DAKOTA

CITY           SKY/WX    TMP DP  RH WIND       PRES   REMARKS
RAPID CTY ARPT PTCLDY    53  52  96 SW5       30.00F
PIERRE         CLOUDY    56  54  93 SE8       29.97F
CUSTER         CLOUDY    47  45  93 NW3       30.09S
ELLSWORTH AFB  MOCLDY    54  53  97 SW7       29.99S
PHILIP         LGT RAIN  62  50  64 N6        29.94F
PINE RIDGE     LGT RAIN  55  54  96 CALM      30.03R
WINNER         FAIR      60  57  89 S7        29.99F
$$

SDZ004>011-016>023-039-040-271000-
NORTHEAST SOUTH DAKOTA

CITY           SKY/WX    TMP DP  RH WIND       PRES   REMARKS
ABERDEEN       CLOUDY    60  57  89 S12       29.99S
WATERTOWN      CLOUDY    61  58  90 S7        30.02F
BROOKINGS      CLOUDY    61  59  93 S6        30.02F
SISSETON         N/A     61  59  93 CALM      30.00F
$$

SDZ017-020-022-023-036>040-048>070-271000-
SOUTHEAST SOUTH DAKOTA

CITY           SKY/WX    TMP DP  RH WIND       PRES   REMARKS
SIOUX FALLS    LGT RAIN  61  61 100 NE6       30.01F
HURON          CLEAR     58  57  97 SE5       29.99F
CHAMBERLAIN    CLEAR     56  56 100 CALM      30.00S
MITCHELL       PTCLDY    59  58  96 SE6       30.00F
YANKTON        CLOUDY    63  59  88 E3        30.00R
$$

ABBREVIATIONS USED IN REMARKS
   TC - TEMPERATURE IN CELSIUS
  WCI - WIND CHILL INDEX
   HX - HEAT INDEX
  VSB - VISIBILITY





USA.gov is the U.S. government's official web portal to all federal, state and local government web resources and services.